Home > Weather > Beja > Past weeks

Flag for Portugal Weather for the Past 2 Weeks in Beja, Portugal

Now
50 °F

Passing clouds.


Feels Like: 47 °F
Forecast: 48 / 57 °F
Wind: 8 mph from West

Location: Beja Airport

Current Time: Feb 7, 2016 at 6:36:12 AM

Latest Report: Feb 7, 2016 at 6:00 AM


Visibility: N/A

Pressure: 30.21 "Hg

Humidity: 100%

Dew point: 50 °F

Location of BejaLocation

Historic Weather in Beja — Graph

°F

Beja Temperature Yesterday

Maximum temperature yesterday: 59 °F (at 1:00 PM)
Minimum temperature yesterday: 46 °F (at 12:00 AM)
Average temperature yesterday: 54 °F

High & Low Weather Summary for the Past Weeks

 TemperatureHumidityPressure
High68 °F (Jan 23, 2:00 PM)100% (Jan 23, 5:00 AM)30.66 "Hg (Jan 23, 5:00 AM)
Low39 °F (Jan 27, 7:00 AM)48% (Feb 4, 2:00 PM)30.09 "Hg (Feb 6, 5:00 PM)
Average52 °F88%30.41 "Hg
* Reported Jan 23 5:00 AM — Feb 7 5:00 AM, Beja, Weather by CustomWeather, © 2016

Note: Actual official high and low records may vary slightly from our data, if they occured in-between our weather recording intervals... More about our weather records

Advertising

Beja Weather History for the Previous 24 Hours

 ConditionsComfort  
Time TempWeatherWind HumidityBarometerVisibility
5:00 AM
Sun, Feb 7
52 °FPassing clouds.9 mph100%30.18 "HgN/A
4:00 AM52 °FPartly cloudy.8 mph100%30.15 "HgN/A
3:00 AM52 °FPartly cloudy.10 mph100%30.15 "HgN/A
2:00 AM54 °FLight rain. Partly cloudy.14 mph94%30.12 "HgN/A
1:00 AM55 °FPartly cloudy.15 mph100%30.12 "HgN/A
12:00 AM55 °FLight rain. Passing clouds.21 mph100%30.12 "HgN/A
11:00 PM
Sat, Feb 6
55 °FLight rain. Passing clouds.18 mph94%30.12 "HgN/A
10:00 PM55 °FLight rain. Passing clouds.16 mph94%30.12 "HgN/A
9:00 PM55 °FLight rain. Passing clouds.13 mph94%30.12 "HgN/A
8:00 PM57 °FPassing clouds.13 mph82%30.12 "HgN/A
7:00 PM57 °FPassing clouds.12 mph82%30.12 "HgN/A
6:00 PM57 °FPassing clouds.13 mph82%30.09 "HgN/A
5:00 PM59 °FPartly sunny.14 mph77%30.09 "HgN/A
4:00 PM59 °FPartly sunny.12 mph77%30.12 "HgN/A
3:00 PM59 °FPartly sunny.10 mph77%30.15 "HgN/A
2:00 PM59 °FPartly sunny.10 mph72%30.15 "HgN/A
1:00 PM59 °FPartly sunny.12 mph82%30.18 "HgN/A
12:00 PM57 °FPartly sunny.9 mph94%30.18 "HgN/A
11:00 AM57 °FPartly sunny.9 mph94%30.18 "HgN/A
10:00 AM54 °FBroken clouds.8 mph100%30.18 "Hg4 mi
9:00 AM52 °FFog.7 mph100%30.18 "Hg1 mi
8:00 AM52 °FFog.6 mph94%30.15 "HgN/A
7:00 AM52 °FPassing clouds.7 mph94%30.15 "HgN/A
6:00 AM52 °FPassing clouds.8 mph94%30.15 "HgN/A
Weather by CustomWeather, © 2016

See weather overviewHow to use our weather pages